Monroe, MI

6:43 PM EST on February 09, 2016 (GMT -0500)
Custer

Weather History for KTTF - December, 2013

Change the Weather History Date:

Sunday, December 1, 2013

  Actual Average Record
Temperature  
Mean Temperature 37 °F -  
Max Temperature 46 °F 42 °F 63 °F (1991)
Min Temperature 28 °F 28 °F 10 °F (1964)
Degree Days  
Heating Degree Days 28    
Moisture  
Dew Point 29 °F    
Average Humidity 75    
Maximum Humidity 93    
Minimum Humidity 57    
Precipitation  
Precipitation 0.00 in - - ()
Sea Level Pressure  
Sea Level Pressure 30.01 in    
Wind  
Wind Speed 3 mph (WNW)    
Max Wind Speed 8 mph    
Max Gust Speed -    
Visibility 9 miles    
Events      
Averages and records for this station are not official NWS values.
T = Trace of Precipitation, MM = Missing Value Source: NWS Daily Summary

Daily Weather History Graph

Daily Weather History Graph

Search for Another Location

Airport or City:

Trip Planner

Search our weather history database for the weather conditions in past years. The results will help you decide how hot, cold, wet, or windy it might be!

Date:

Astronomy

Dec. 01, 2013 Rise Set
Actual Time 7:42 AM EST 5:03 PM EST
Civil Twilight 7:11 AM EST 5:34 PM EST
Nautical Twilight 6:36 AM EST 6:09 PM EST
Astronomical Twilight 6:02 AM EST 6:42 PM EST
Moon 5:57 AM EST (12/1) 4:13 PM EST (12/1)
Length of Visible Light 10h 23m
Length of Day
9h 21m
Waning Crescent, 2% of the Moon is Illuminated
Dec 1
Waning Crescent
Dec 2
New
Dec 9
First Quarter
Dec 17
Full
Dec 25
Last Quarter

Hourly Weather History & Observations

Time (EST) Temp. Windchill Dew Point Humidity Pressure Visibility Wind Dir Wind Speed Gust Speed Precip Events Conditions
12:14 AM 32.0 °F 28.7 °F 24.8 °F 75% 30.09 in 10.0 mi South 3.5 mph - N/A   Clear
12:35 AM 30.2 °F - 26.6 °F 86% 30.09 in 10.0 mi Calm Calm - N/A   Clear
12:55 AM 32.0 °F - 26.6 °F 80% 30.08 in 10.0 mi Calm Calm - N/A   Clear
1:15 AM 28.4 °F 24.6 °F 24.8 °F 86% 30.07 in 10.0 mi South 3.5 mph - N/A   Clear
1:35 AM 28.4 °F 23.3 °F 24.8 °F 86% 30.07 in 10.0 mi South 4.6 mph - N/A   Clear
1:55 AM 30.2 °F 26.7 °F 24.8 °F 80% 30.06 in 10.0 mi SSW 3.5 mph - N/A   Clear
2:15 AM 30.2 °F 26.7 °F 24.8 °F 80% 30.06 in 10.0 mi SSW 3.5 mph - N/A   Clear
2:35 AM 28.4 °F 24.6 °F 24.8 °F 86% 30.05 in 10.0 mi South 3.5 mph - N/A   Clear
2:55 AM 28.4 °F 24.6 °F 24.8 °F 86% 30.05 in 10.0 mi South 3.5 mph - N/A   Clear
3:15 AM 28.4 °F 24.6 °F 24.8 °F 86% 30.05 in 10.0 mi South 3.5 mph - N/A   Clear
3:35 AM 28.4 °F 24.6 °F 24.8 °F 86% 30.05 in 10.0 mi South 3.5 mph - N/A   Clear
3:55 AM 28.4 °F - 24.8 °F 86% 30.04 in 10.0 mi Calm Calm - N/A   Clear
4:15 AM 30.2 °F - 26.6 °F 86% 30.03 in 10.0 mi Calm Calm - N/A   Clear
4:36 AM 30.2 °F - 26.6 °F 86% 30.03 in 10.0 mi Calm Calm - N/A   Clear
4:56 AM 28.4 °F - 24.8 °F 86% 30.03 in 10.0 mi Calm Calm - N/A   Mostly Cloudy
5:16 AM 28.4 °F - 26.6 °F 93% 30.03 in 10.0 mi Calm Calm - N/A   Overcast
5:36 AM 30.2 °F - 26.6 °F 86% 30.03 in 10.0 mi Calm Calm - N/A   Overcast
5:56 AM 30.2 °F - 26.6 °F 86% 30.03 in 10.0 mi Calm Calm - N/A   Overcast
6:16 AM 30.2 °F - 26.6 °F 86% 30.03 in 10.0 mi Calm Calm - N/A   Overcast
6:36 AM 32.0 °F - 28.4 °F 87% 30.03 in 10.0 mi Calm Calm - N/A   Overcast
6:56 AM 33.8 °F - 28.4 °F 81% 30.03 in 10.0 mi Calm Calm - N/A   Overcast
7:16 AM 33.8 °F - 28.4 °F 81% 30.03 in 10.0 mi Calm Calm - N/A   Overcast
7:37 AM 35.6 °F 31.7 °F 28.4 °F 75% 30.03 in 10.0 mi WSW 4.6 mph - N/A   Overcast
7:52 AM 35.6 °F 32.8 °F 28.4 °F 75% 30.03 in 10.0 mi SW 3.5 mph - N/A   Overcast
8:12 AM 35.6 °F 32.8 °F 28.4 °F 75% 30.03 in 10.0 mi SW 3.5 mph - N/A   Overcast
8:32 AM 35.6 °F - 28.4 °F 75% 30.03 in 10.0 mi Calm Calm - N/A   Overcast
8:52 AM 35.6 °F - 28.4 °F 75% 30.03 in 10.0 mi Calm Calm - N/A   Overcast
9:12 AM 37.4 °F - 28.4 °F 70% 30.03 in 10.0 mi Calm Calm - N/A   Overcast
9:32 AM 37.4 °F 33.8 °F 28.4 °F 70% 30.03 in 10.0 mi SW 4.6 mph - N/A   Overcast
9:52 AM 37.4 °F 32.8 °F 28.4 °F 70% 30.03 in 10.0 mi WSW 5.8 mph - N/A   Mostly Cloudy
10:12 AM 39.2 °F 34.2 °F 28.4 °F 65% 30.03 in 10.0 mi WSW 6.9 mph - N/A   Scattered Clouds
10:33 AM 39.2 °F 35.0 °F 28.4 °F 65% 30.03 in 10.0 mi West 5.8 mph - N/A   Mostly Cloudy
10:53 AM 39.2 °F 34.2 °F 28.4 °F 65% 30.03 in 10.0 mi West 6.9 mph - N/A   Mostly Cloudy
11:13 AM 41.0 °F 35.8 °F 30.2 °F 65% 30.03 in 10.0 mi West 8.1 mph - N/A   Scattered Clouds
11:33 AM 41.0 °F 35.8 °F 30.2 °F 65% 30.02 in 10.0 mi West 8.1 mph - N/A   Scattered Clouds
11:53 AM 42.8 °F 38.6 °F 30.2 °F 61% 30.01 in 10.0 mi West 6.9 mph - N/A   Clear
12:13 PM 42.8 °F 38.0 °F 30.2 °F 61% 30.01 in 10.0 mi WNW 8.1 mph - N/A   Clear
12:33 PM 42.8 °F 38.0 °F 30.2 °F 61% 30.01 in 10.0 mi WNW 8.1 mph - N/A   Clear
12:53 PM 42.8 °F 39.3 °F 32.0 °F 66% 29.99 in 10.0 mi West 5.8 mph - N/A   Clear
1:13 PM 42.8 °F 40.1 °F 32.0 °F 66% 29.99 in 10.0 mi West 4.6 mph - N/A   Clear
1:33 PM 44.6 °F 42.2 °F 32.0 °F 61% 29.98 in 10.0 mi West 4.6 mph - N/A   Clear
1:53 PM 44.6 °F 42.2 °F 32.0 °F 61% 29.97 in 10.0 mi WNW 4.6 mph - N/A   Clear
2:13 PM 46.4 °F - 32.0 °F 57% 29.96 in 7.0 mi Calm Calm - N/A   Clear
2:34 PM 46.4 °F 43.5 °F 32.0 °F 57% 29.96 in 10.0 mi WNW 5.8 mph - N/A   Clear
2:54 PM 46.4 °F 43.5 °F 32.0 °F 57% 29.96 in 10.0 mi NW 5.8 mph - N/A   Clear
3:14 PM 44.6 °F 43.1 °F 33.8 °F 66% 29.96 in 10.0 mi WNW 3.5 mph - N/A   Scattered Clouds
3:34 PM 44.6 °F 43.1 °F 33.8 °F 66% 29.96 in 10.0 mi West 3.5 mph - N/A   Overcast
3:54 PM 44.6 °F 41.4 °F 32.0 °F 61% 29.97 in 10.0 mi WNW 5.8 mph - N/A   Overcast
4:14 PM 44.6 °F 41.4 °F 33.8 °F 66% 29.97 in 10.0 mi NNW 5.8 mph - N/A   Overcast
4:34 PM 42.8 °F 39.3 °F 32.0 °F 66% 29.97 in 7.0 mi North 5.8 mph - N/A   Overcast
4:55 PM 42.8 °F 40.1 °F 32.0 °F 66% 29.97 in 7.0 mi North 4.6 mph - N/A   Overcast
5:15 PM 42.8 °F 41.1 °F 32.0 °F 66% 29.97 in 10.0 mi North 3.5 mph - N/A   Overcast
5:35 PM 41.0 °F 35.8 °F 30.2 °F 65% 29.98 in 7.0 mi North 8.1 mph - N/A   Overcast
5:55 PM 39.2 °F 34.2 °F 30.2 °F 70% 29.98 in 7.0 mi North 6.9 mph - N/A   Overcast
6:15 PM 39.2 °F 33.6 °F 30.2 °F 70% 29.99 in 7.0 mi North 8.1 mph - N/A   Overcast
6:35 PM 39.2 °F 33.6 °F 30.2 °F 70% 29.99 in 7.0 mi North 8.1 mph - N/A   Overcast
6:55 PM 39.2 °F 35.9 °F 30.2 °F 70% 29.99 in 7.0 mi North 4.6 mph - N/A   Overcast
7:15 PM 39.2 °F 35.9 °F 30.2 °F 70% 29.99 in 7.0 mi North 4.6 mph - N/A   Overcast
7:35 PM 37.4 °F 33.8 °F 30.2 °F 75% 29.99 in 7.0 mi North 4.6 mph - N/A   Overcast
7:55 PM 37.4 °F 32.8 °F 30.2 °F 75% 29.99 in 7.0 mi North 5.8 mph - N/A   Overcast
8:15 PM 37.4 °F 34.9 °F 30.2 °F 75% 29.99 in 7.0 mi NNW 3.5 mph - N/A   Overcast
8:35 PM 37.4 °F 32.8 °F 32.0 °F 81% 29.99 in 7.0 mi North 5.8 mph - N/A   Overcast
8:55 PM 37.4 °F 33.8 °F 32.0 °F 81% 29.98 in 5.0 mi North 4.6 mph - N/A   Haze
9:16 PM 35.6 °F 31.7 °F 30.2 °F 81% 29.98 in 5.0 mi North 4.6 mph - N/A   Haze
9:36 PM 35.6 °F - 30.2 °F 81% 29.98 in 5.0 mi Calm Calm - N/A   Haze
9:56 PM 35.6 °F 32.8 °F 30.2 °F 81% 29.98 in 5.0 mi North 3.5 mph - N/A   Haze
10:16 PM 35.6 °F 32.8 °F 30.2 °F 81% 29.98 in 5.0 mi NNW 3.5 mph - N/A   Overcast
10:36 PM 33.8 °F - 30.2 °F 87% 29.98 in 5.0 mi Calm Calm - N/A   Overcast
10:56 PM 33.8 °F 30.8 °F 30.2 °F 87% 29.98 in 5.0 mi NNW 3.5 mph - N/A   Overcast
11:16 PM 33.8 °F 30.8 °F 30.2 °F 87% 29.97 in 5.0 mi NNW 3.5 mph - N/A   Overcast
11:36 PM 33.8 °F - 30.2 °F 87% 29.97 in 4.0 mi Calm Calm - N/A   Overcast
11:52 PM 33.8 °F - 30.2 °F 87% 29.97 in 4.0 mi Calm Calm - N/A   Overcast